"Pseudo-MPEC" for C1J3G12

Created 2019 Dec 5 17:07:15 UT using Find_Orb

Click here for an explanation of pseudo-MPECs

 
 Astrometry: 
     C1J3G12  C2019 12 03.33839 04 02 25.97 +21 42 34.4    ~C39M 21.3 GVNEOCPG96
     C1J3G12  C2019 12 03.34409 04 02 24.94 +21 43 09.0    ~C39M 21.3 GVNEOCPG96
     C1J3G12  C2019 12 03.34978 04 02 23.85 +21 43 43.6    ~C39M 20.9 GVNEOCPG96
     C1J3G12  C2019 12 03.35549 04 02 22.78 +21 44 18.8    ~C39M 21.0 GVNEOCPG96
     C1J3G12  C2019 12 03.45369 04 02 04.84 +21 54 17.5    ~C3BM 21.1 GVNEOCPI52
     C1J3G12  C2019 12 03.45619 04 02 04.37 +21 54 34.3    ~C3BM 20.6 GVNEOCPI52
     C1J3G12  C2019 12 04'BLVRAstrometrySveV@kse`%f`redacted;8x74n%]b2:`Au]H+F52
     C1J3G12  C2019 12 045![T1y+A`d-$$E4JAq2C)^KUAs`0NBd:x=Es#c(A%^79/Y1uVnVnF52
     C1J3G12  C2019 12 04?15lLyuH=5[4s^Qyfr$%04C)cSw?Hq+7cW78YTMY5aRN8+necsO[F52
     C1J3G12  C2019 12 04-rdKKjM3uePRi10DXvNJ[B5Ep#6kN-sitn.J!d9fu01uBaclick#F52
     C1J3G12 KC2019 12 05lCy\BoHMkm!-TNPNC_Sx#ldxVOMxkPEh*'0y[2LL(34VcS#pQZbpH21
     C1J3G12 KC2019 12 05Ysy`qDk2uwvtY/G_5)sI_7fmn\xNyHarHHCl9`Y4]UbpdcVSl)WRH21
     C1J3G12 KC2019 12 05tCyBZwJ3F2_hereH4(:MhM;)#vGg,!3iX?cU+iVbBadVDX]2,Rl5H21
     C1J3G12 KC2019 12 05/C\P)7dsofor)\%HBnxqZt2DPVgC.siw(24YKw5uK(mnFE??,JIMH36
     C1J3G12 KC2019 12 056_5cO3l;!%1LF!\L!e?JeeCF*Op.lwx+gb4T.PU3a[ib]%48D-0LH36
     C1J3G12 KC2019 12 05`V1i?5X=AE%/S3_.!explanationiC=I+sm85WeO3vsno.2)%l9XH36

Station data:
(F52) Pan-STARRS 2, Haleakala  (N20.707384 W156.255910)  US/Hawaii. 1.8-m
   Ritchey-Chrétien + CCD.
(G96) Mt. Lemmon Survey  (N32.442754 W110.788720)  US/Arizona.  Observers T.
   A. Pruyne, B. M. Africano, E. J. Christensen, G. A. Farneth, D. C. Fuls,
   A. R. Gibbs, A. D. Grauer, H. Gröller, J. A. Johnson, R. A. Kowalski, S.
   M. Larson, G. J. Leonard, D. Rankin, R. L. Seaman, F. C. Shelly. 1.5-m
   reflector + 10K CCD.
(H21) Astronomical Research Observatory, Westfield  (N39.483057 W87.968270)
   US/Illinois. 0.76-m f/3.0 astrograph + CCD.
(H36) Sandlot Observatory, Scranton  (N38.797693 W95.706400)  US/Kansas.
   Observer G. Hug. 0.56-m reflector + CCD.
(I52) Steward Observatory, Mt. Lemmon Station  (N32.442547 W110.788920)
   US/Arizona.  Observers T. A. Pruyne, B. M. Africano, E. J. Christensen, G.
   A. Farneth, D. C. Fuls, A. R. Gibbs, A. D. Grauer, H. Gröller, J. A.
   Johnson, R. A. Kowalski, S. M. Larson, G. J. Leonard, D. Rankin, R. L.
   Seaman, F. C. Shelly. 1.0-m reflector + CCD.

Orbital elements:  C1J3G12
   Perihelion 2020 Jan 26.852665 +/- 0.0479 TT = 20:27:50 (JD 2458875.352665)
Epoch 2019 Dec  5.0 TT = JDT 2458822.5   Earth MOID: 0.0758   Ma: 0.0351
M 331.03749922 +/- 0.20             (J2000 ecliptic)          AutoNEOCP
n   0.54798562 +/- 0.00342          Peri.   61.16222 +/- 0.038
a   1.47896059 +/- 0.00615          Node    69.26799 +/- 0.0048
e   0.3545369 +/- 0.00267           Incl.   11.75072 +/- 0.08
P   1.80/656.94d           H 25.3   G  0.15   U  8.9  
q 0.95461445 +/- 0.000262    Q 2.00330673 +/- 0.0123
From 16 observations 2019 Dec. 3-5 (45.9 hr); mean residual 0".43
Residuals in arcseconds: 
191203 G96  .57-  .07+    191204 F52  .13-  .22+    191205 H21  .32+  .12-    
191203 G96  .08+  .22-    191204 F52  .28+  .03-    191205 H36  .99-  1.1+    
191203 G96  .16-  .43-    191204 F52  .12+  .18-    191205 H36  .41-  .14-    
191203 G96  .09-  .15-    191204 F52  .02-  .05+    191205 H36  .39+  .86-    
191203 I52  .42+  .51-    191205 H21  .46+  .14+    
191203 I52  .03+  1.1+    191205 H21  .13+  .17-    

Ephemerides (geocentric):
Date (UTC) HH   RA              Dec         delta   r     elong  mag " sig PA
---- -- -- --  -------------   -----------  ------ ------ -----  --- ---- ---
2019 12 05 17  03 55 20.793   +26 07 52.24  .10744 1.0907 167.8 21.4 .541 153
2019 12 05 18  03 55 12.452   +26 12 55.17  .10729 1.0905 167.7 21.4 .577 153
2019 12 05 19  03 55 04.079   +26 17 58.92  .10713 1.0903 167.6 21.4 .615 153
2019 12 05 20  03 54 55.675   +26 23 03.51  .10698 1.0901 167.5 21.4 .653 152
2019 12 05 21  03 54 47.238   +26 28 08.94  .10683 1.0899 167.4 21.4 .693 152
2019 12 05 22  03 54 38.768   +26 33 15.19  .10667 1.0897 167.4 21.4 .733 152
2019 12 05 23  03 54 30.267   +26 38 22.28  .10652 1.0895 167.3 21.4 .775 152
2019 12 06 00  03 54 21.732   +26 43 30.21  .10637 1.0894 167.2 21.4 .818 152
2019 12 06 01  03 54 13.165   +26 48 38.97  .10621 1.0892 167.1 21.4 .862 152
2019 12 06 02  03 54 04.565   +26 53 48.56  .10606 1.0890 167.0 21.4 .907 152
2019 12 06 03  03 53 55.931   +26 58 59.00  .10591 1.0888 166.9 21.4 .953 153
2019 12 06 04  03 53 47.264   +27 04 10.27  .10576 1.0886 166.8 21.4 1.00 153
2019 12 06 05  03 53 38.564   +27 09 22.39  .10561 1.0884 166.7 21.4 1.05 153
2019 12 06 06  03 53 29.830   +27 14 35.34  .10546 1.0882 166.6 21.4 1.10 153
2019 12 06 07  03 53 21.062   +27 19 49.14  .10531 1.0880 166.5 21.4 1.15 153
2019 12 06 08  03 53 12.259   +27 25 03.78  .10516 1.0878 166.4 21.4 1.20 153
2019 12 06 09  03 53 03.423   +27 30 19.26  .10501 1.0876 166.3 21.4 1.26 153
2019 12 06 10  03 52 54.552   +27 35 35.58  .10486 1.0875 166.2 21.4 1.31 153
2019 12 06 11  03 52 45.646   +27 40 52.75  .10471 1.0873 166.1 21.4 1.37 153
2019 12 06 12  03 52 36.706   +27 46 10.77  .10456 1.0871 166.0 21.4 1.42 153
2019 12 06 13  03 52 27.730   +27 51 29.63  .10442 1.0869 165.9 21.4 1.48 153
2019 12 06 14  03 52 18.719   +27 56 49.34  .10427 1.0867 165.9 21.4 1.54 153
2019 12 06 15  03 52 09.673   +28 02 09.89  .10412 1.0865 165.8 21.4 1.60 153
2019 12 06 16  03 52 00.590   +28 07 31.30  .10397 1.0863 165.7 21.4 1.66 153
2019 12 06 17  03 51 51.473   +28 12 53.55  .10383 1.0861 165.6 21.4 1.73 154
2019 12 06 18  03 51 42.319   +28 18 16.65  .10368 1.0859 165.5 21.4 1.79 154
2019 12 06 19  03 51 33.128   +28 23 40.61  .10354 1.0858 165.4 21.4 1.86 154
2019 12 06 20  03 51 23.902   +28 29 05.41  .10339 1.0856 165.3 21.4 1.92 154
2019 12 06 21  03 51 14.638   +28 34 31.06  .10325 1.0854 165.2 21.4 1.99 154
2019 12 06 22  03 51 05.338   +28 39 57.57  .10310 1.0852 165.1 21.4 2.06 154
2019 12 06 23  03 50 56.001   +28 45 24.93  .10296 1.0850 165.0 21.4 2.13 154
2019 12 07 00  03 50 46.626   +28 50 53.14  .10281 1.0848 164.9 21.4 2.20 154
2019 12 07 01  03 50 37.214   +28 56 22.20  .10267 1.0846 164.8 21.4 2.28 154
2019 12 07 02  03 50 27.764   +29 01 52.12  .10253 1.0844 164.7 21.4 2.35 154
2019 12 07 03  03 50 18.276   +29 07 22.89  .10239 1.0843 164.6 21.4 2.43 154
2019 12 07 04  03 50 08.750   +29 12 54.52  .10224 1.0841 164.5 21.4 2.50 154
2019 12 07 05  03 49 59.186   +29 18 27.00  .10210 1.0839 164.4 21.4 2.58 154
2019 12 07 06  03 49 49.583   +29 24 00.34  .10196 1.0837 164.3 21.4 2.66 155
2019 12 07 07  03 49 39.941   +29 29 34.53  .10182 1.0835 164.2 21.4 2.74 155
2019 12 07 08  03 49 30.260   +29 35 09.58  .10168 1.0833 164.1 21.4 2.83 155
2019 12 07 09  03 49 20.540   +29 40 45.49  .10154 1.0831 164.0 21.4 2.91 155
2019 12 07 10  03 49 10.781   +29 46 22.25  .10140 1.0829 163.9 21.4 3.00 155
2019 12 07 11  03 49 00.981   +29 51 59.87  .10126 1.0828 163.8 21.4 3.08 155
2019 12 07 12  03 48 51.142   +29 57 38.34  .10112 1.0826 163.6 21.4 3.17 155
2019 12 07 13  03 48 41.263   +30 03 17.68  .10098 1.0824 163.5 21.4 3.26 155
2019 12 07 14  03 48 31.343   +30 08 57.87  .10084 1.0822 163.4 21.4 3.35 155
2019 12 07 15  03 48 21.382   +30 14 38.92  .10071 1.0820 163.3 21.4 3.45 155
2019 12 07 16  03 48 11.380   +30 20 20.83  .10057 1.0818 163.2 21.4 3.54 155